Location: *
(37.9500°N, 27.3666°E)
Time: 06:06:26
(UTC+00:00)

X-37B - Pass Details

Date: 22 April 2024
Orbit: 277 x 277 km, 45.0° (Epoch: 01 November)

Event Time Altitude Azimuth Distance (km) Brightness Sun altitude
Exits shadow 02:27:00 19° 208° (SSW) 737 1.5 -11.6°
Drops below altitude 10° 02:28:38 10° 166° (SSE) 1,092 2.7 -11.3°
Sets 02:30:48 0° 148° (SSE) 1,899 4.2 -10.9°
